Location: Allos
(44.2333°N, 6.6333°E)
Time: 09:20:54
(UTC+00:00)

deb Kosmos-249 - Visible Passes

Search period start: 16 June 2021 00:00
Search period end: 26 June 2021 00:00
Orbit: 575 x 1724 km, 62.3° (Epoch: 15 June)

Date Brightness Start Highest point End Pass type
(mag) Time Alt. Az. Time Alt. Az. Time Alt. Az.
16 Jun ? 00:49:22 14° SSE 00:53:22 21° ESE 00:58:08 10° ENE visible
16 Jun ? 02:37:45 12° SW 02:45:07 89° NW 02:51:04 10° NE visible
17 Jun ? 00:18:15 13° SE 00:21:13 16° ESE 00:25:02 10° E visible
17 Jun ? 02:06:37 18° SSW 02:12:48 74° SE 02:18:50 10° NE visible
17 Jun ? 23:47:05 10° SE 23:49:04 11° ESE 23:51:01 10° E visible
18 Jun ? 01:35:27 23° SSW 01:40:31 58° SE 01:46:32 10° NE visible
19 Jun ? 01:04:13 26° S 01:08:14 46° ESE 01:14:11 10° NE visible
19 Jun ? 02:53:08 10° WSW 03:00:17 45° NW 03:05:46 10° NNE visible
20 Jun ? 00:32:56 27° SSE 00:35:58 36° ESE 00:41:44 10° NE visible
20 Jun ? 02:21:18 14° WSW 02:27:55 56° NW 02:33:38 10° NNE visible
21 Jun ? 00:01:36 25° SE 00:03:43 28° ESE 00:09:11 10° ENE visible
21 Jun ? 01:49:57 20° SW 01:55:35 69° NW 02:01:27 10° NE visible
21 Jun ? 23:30:12 21° SE 23:31:30 22° ESE 23:36:28 10° ENE visible
22 Jun ? 01:18:34 26° SW 01:23:16 86° NW 01:29:16 10° NE visible
22 Jun ? 03:10:21 10° W 03:15:47 24° NW 03:20:14 10° NNE visible
22 Jun ? 22:58:45 17° ESE 22:59:19 17° ESE 23:03:28 10° ENE visible
23 Jun ? 00:47:06 32° SSW 00:50:57 77° SE 00:57:01 10° NE visible
23 Jun ? 02:37:14 10° W 02:43:18 29° NW 02:48:10 10° NNE visible
23 Jun ? 22:27:15 12° ESE 22:27:15 12° ESE 22:29:50 10° E visible
24 Jun ? 00:15:35 37° S 00:18:39 62° SE 00:24:44 10° NE visible
24 Jun ? 02:04:12 10° WSW 02:10:52 35° NW 02:16:03 10° NNE visible
24 Jun ? 23:44:01 38° SSE 23:46:21 49° ESE 23:52:23 10° NE visible
25 Jun ? 01:32:21 14° WSW 01:38:27 43° NW 01:43:56 10° NNE visible
25 Jun ? 23:12:22 34° SSE 23:14:05 38° ESE 23:19:58 10° NE visible
